Weather observations for the past three days for
Atlanta, De Kalb-Peachtree Airport
Imperial (Metric)
Date Time (edt) Wind (mph) Vis. (mi.) Weather Sky Cond. Temperature (ºF) Relative Humidity Wind Chill (°F) Heat Index (°F) Pressure Precipitation (in)
Air Dwpt 6 hour altimeter (in) sea level (mb) 1 hr 3 hr 6 hr
Max. Min.
20 06:53 Calm 10.00 Mostly Cloudy BKN065 71.1 64 79% 30.31 1024.5
20 05:53 Calm 10.00 Overcast FEW046 OVC060 73 63 71% 30.29 1024.0
20 04:53 Calm 10.00 Mostly Cloudy BKN060 72 63 73% 30.28 1023.5
20 03:53 Calm 10.00 Mostly Cloudy BKN055 72 63 73% 30.27 1023.2
20 02:53 E 3 10.00 A Few Clouds FEW055 73 63 71% 30.26 1022.8
20 01:53 E 3 10.00 Partly Cloudy SCT060 75 63 82 75 66% 77 30.26 1022.8
20 00:53 Vrbl 3 10.00 Mostly Cloudy BKN055 75.9 63 64% 78 30.26 1022.8
19 23:53 Vrbl 3 10.00 Fair CLR 77 62.1 60% 79 30.26 1022.8
19 22:53 Vrbl 5 10.00 Fair CLR 78.1 62.1 58% 80 30.26 1022.8
19 21:53 Calm 10.00 Fair CLR 79 62.1 56% 80 30.24 1022.5
19 20:53 Vrbl 3 10.00 Fair CLR 81 61 51% 82 30.24 1022.2
19 19:53 Calm 10.00 Fair CLR 82 61 88 81 49% 83 30.23 1022.0
19 18:53 Calm 10.00 Fair CLR 84 61 46% 84 30.22 1021.6
19 17:53 Vrbl 7 10.00 Fair CLR 84 60.1 44% 84 30.22 1021.8
19 16:53 Calm 10.00 A Few Clouds FEW050 86 61 43% 86 30.23 1022.0
19 15:53 Vrbl 3 10.00 Fair CLR 84.9 61 45% 85 30.24 1022.4
19 14:53 Vrbl 3 10.00 A Few Clouds FEW048 82.9 61 48% 83 30.25 1022.7
19 13:53 Calm 10.00 Mostly Cloudy BKN047 82 61 82.9 70 49% 83 30.27 1023.2
19 12:53 Vrbl 5 10.00 Mostly Cloudy BKN041 82 62.1 51% 83 30.28 1023.6
19 11:53 Vrbl 6 10.00 Mostly Cloudy SCT033 BKN042 79 62.1 56% 80 30.29 1023.8
19 10:53 E 7 10.00 Mostly Cloudy BKN020 77 64 64% 79 30.29 1023.8
19 09:53 E 10 10.00 Mostly Cloudy BKN020 73 64 74% 30.29 1024.3
19 08:53 Vrbl 5 10.00 A Few Clouds FEW017 73 64 74% 30.29 1024.0
19 07:53 Vrbl 3 10.00 Mostly Cloudy BKN017 70 63 75 69.1 79% 30.27 1023.3
19 06:53 Vrbl 3 10.00 Fair CLR 69.1 63 81% 30.24 1022.4
19 05:53 Calm 10.00 Fair CLR 70 63 79% 30.21 1021.1
19 04:53 Vrbl 3 10.00 Fair CLR 71.1 64 79% 30.2 1020.8
19 03:53 Vrbl 5 10.00 Fair CLR 72 63 73% 30.18 1020.2
19 02:53 SE 5 10.00 Fair CLR 73.9 62.1 67% 30.18 1020.2
19 01:53 Calm 10.00 A Few Clouds FEW050 73.9 60.1 82 73.9 62% 30.18 1020.0
19 00:53 Calm 10.00 Fair CLR 75.9 60.1 58% 78 30.18 1020.1
18 23:53 Vrbl 5 10.00 Fair CLR 75.9 60.1 58% 78 30.18 1020.3
18 22:53 Calm 10.00 Fair CLR 78.1 61 56% 80 30.18 1019.9
18 21:53 Vrbl 3 10.00 Fair CLR 79 61 54% 80 30.17 1019.7
18 20:53 Vrbl 3 10.00 A Few Clouds FEW060 81 61 51% 82 30.15 1019.0
18 19:53 E 9 10.00 A Few Clouds FEW060 82 62.1 88 82 51% 83 30.14 1018.9
18 18:53 Vrbl 6 10.00 A Few Clouds FEW065 82.9 61 48% 83 30.13 1018.6
18 17:53 Vrbl 6 10.00 Partly Cloudy SCT060 84.9 61 45% 85 30.14 1018.6
18 16:53 SE 9 G 21 10.00 Fair CLR 86 62.1 45% 87 30.14 1018.5
18 15:53 Calm 10.00 Mostly Cloudy BKN060 86 62.1 45% 87 30.15 1018.8
18 14:53 Calm 10.00 Mostly Cloudy SCT048 BKN060 84.9 63 48% 86 30.15 1018.9
18 13:53 Vrbl 7 G 22 10.00 Partly Cloudy SCT047 86 63 86 73 46% 87 30.17 1019.5
18 12:53 Vrbl 6 10.00 Partly Cloudy FEW039 SCT060 82 64 55% 84 30.18 1020.1
18 10:53 E 9 G 17 10.00 A Few Clouds FEW047 81 64.9 58% 83 30.19 1020.2
18 09:53 Vrbl 6 10.00 A Few Clouds FEW046 78.1 64.9 64% 80 30.2 1020.7
18 07:53 Vrbl 3 10.00 Overcast BKN045 OVC050 73 63 77 72 71% 30.18 1019.9
18 06:53 Calm 10.00 Mostly Cloudy FEW045 BKN055 72 62.1 71% 30.16 1019.4
18 05:53 Calm 10.00 Partly Cloudy SCT046 73 64 74% 30.15 1019.0
18 04:53 SE 3 10.00 Mostly Cloudy BKN041 75 64.9 71% 77 30.14 1018.7
18 03:53 Vrbl 3 10.00 Mostly Cloudy BKN075 75 66 74% 76 30.15 1018.9
18 02:53 SE 3 10.00 A Few Clouds FEW050 75.9 66 72% 77 30.15 1018.8
18 01:53 SE 5 10.00 Mostly Cloudy BKN040 77 68 88 77 74% 79 30.16 1019.1
18 00:53 SE 3 10.00 Fair CLR 78.1 69.1 74% 80 30.15 1019.0
17 23:53 Vrbl 5 10.00 Fair CLR 80.1 68 67% 83 30.15 1018.9
17 22:53 Calm 10.00 Partly Cloudy FEW060 SCT100 80.1 68 67% 83 30.14 1018.4
17 21:53 Calm 10.00 Mostly Cloudy BKN060 82 66 58% 84 30.11 1017.7
17 20:53 Calm 10.00 Mostly Cloudy SCT065 BKN090 84.9 66 53% 87 30.09 1017.0
17 19:53 Vrbl 6 10.00 Fair CLR 88 66 91 87.1 48% 90 30.08 1016.6
17 18:53 Vrbl 5 10.00 A Few Clouds FEW055 89.1 64.9 45% 91 30.08 1016.4
17 17:53 Calm 10.00 A Few Clouds FEW055 89.1 64.9 45% 91 30.08 1016.5
17 16:53 E 5 10.00 A Few Clouds FEW050 88 66 48% 90 30.1 1017.2
17 15:53 Vrbl 3 10.00 Fair CLR 89.1 66 47% 92 30.12 1017.9
17 14:53 Calm 10.00 Mostly Cloudy BKN050 89.1 64.9 45% 91 30.14 1018.6
17 13:53 Vrbl 5 10.00 A Few Clouds FEW050 89.1 64.9 90 75 45% 91 30.16 1019.1
17 12:53 Vrbl 7 G 18 10.00 Fair CLR 88 66 48% 90 30.18 1019.8
17 11:53 Vrbl 7 10.00 Fair CLR 84.9 66.9 55% 88 30.18 1019.8
17 10:53 SE 7 10.00 Fair CLR 82.9 66.9 59% 86 30.18 1020.0
17 09:53 S 6 10.00 Partly Cloudy SCT038 80.1 66.9 64% 82 30.19 1020.2
17 08:53 Calm 10.00 Fair CLR 78.1 69.1 74% 80 30.19 1020.1
17 07:53 Vrbl 5 10.00 Fair CLR 75.9 68 80.1 73 77% 77 30.18 1019.7
Date Time (edt) Wind (mph) Vis. (mi.) Weather Sky Cond. Air Dwpt Max. Min. Relative Humidity Wind Chill (°F) Heat Index (°F) altimeter (in) sea level (mb) 1 hr 3 hr 6 hr
6 hour
Temperature (ºF) Pressure Precipitation (in)